Location: Newark
(41.9364°N, 2.8061°E)
Time: 02:12:23
(UTC+00:00)

A-11 Canister half - Pass Details

Date: 27 February 2020
Orbit: 1516 x 1683 km, 47.2° (Epoch: 06 April)

Event Time Altitude Azimuth Distance (km) Brightness Sun altitude
Rises 22:10:49 0° 293° (WNW) 4,798 12.2 -48.4°
Reaches altitude 10° 22:14:42 10° 281° (W) 3,782 11.4 -48.9°
Enters shadow 22:18:39 20° 258° (WSW) 3,020 10.6 -49.4°
